N636CX KUDD-KEMT

Flight info

Callsign N636CX
Flight time 0h 24m
Altitude
Route
Aircraft EXP/L-VGD/C

Departure

Time 2026-05-06 00:56
Airport Bermuda Dunes Airport (KUDD)

Arrival

Time 2026-05-06 01:21
Airport San Gabriel Valley Airport (KEMT)
Time Latitude Longitude Altitude Speed Heading
2026-05-06 00:48 33.74523 -116.26975 61 ft 0 kts 271°
2026-05-06 00:54 33.74523 -116.26977 61 ft 0 kts 273°
2026-05-06 00:55 33.74540 -116.26981 61 ft 5 kts 12°
2026-05-06 00:55 33.74574 -116.26935 61 ft 11 kts 107°
2026-05-06 00:55 33.74529 -116.26823 60 ft 15 kts 116°
2026-05-06 00:55 33.74536 -116.26752 59 ft 8 kts 10°
2026-05-06 00:56 33.74563 -116.26784 59 ft 10 kts 297°
2026-05-06 00:56 33.74841 -116.27486 158 ft 152 kts 298°
2026-05-06 00:56 33.75421 -116.28920 671 ft 229 kts 296°
2026-05-06 00:56 33.75167 -116.30798 1567 ft 281 kts 227°
2026-05-06 00:57 33.73219 -116.31583 2394 ft 329 kts 179°
2026-05-06 00:57 33.70927 -116.30637 2942 ft 370 kts 149°
2026-05-06 00:57 33.69136 -116.28271 3322 ft 402 kts 118°
2026-05-06 00:57 33.68485 -116.25312 4092 ft 341 kts 93°
2026-05-06 00:58 33.68042 -116.22735 4786 ft 291 kts 116°
2026-05-06 00:58 33.66976 -116.20933 5501 ft 257 kts 129°
2026-05-06 00:58 33.65763 -116.19327 6230 ft 265 kts 130°
2026-05-06 00:58 33.64945 -116.17361 6959 ft 273 kts 98°
2026-05-06 00:59 33.65196 -116.15102 7704 ft 278 kts 64°
2026-05-06 00:59 33.66447 -116.13410 8437 ft 281 kts 31°
2026-05-06 00:59 33.68333 -116.12806 9186 ft 281 kts 358°
2026-05-06 00:59 33.70136 -116.13540 9926 ft 279 kts 325°
2026-05-06 01:00 33.71355 -116.15412 10667 ft 304 kts 296°
2026-05-06 01:00 33.72100 -116.17896 11147 ft 337 kts 289°
2026-05-06 01:00 33.72838 -116.20763 11247 ft 374 kts 288°
2026-05-06 01:00 33.73620 -116.23841 11309 ft 404 kts 288°
2026-05-06 01:01 33.74457 -116.27151 11393 ft 422 kts 288°
2026-05-06 01:01 33.75316 -116.30549 11521 ft 428 kts 288°
2026-05-06 01:01 33.76194 -116.33977 11662 ft 431 kts 290°
2026-05-06 01:01 33.77642 -116.37071 11769 ft 428 kts 310°
2026-05-06 01:02 33.79963 -116.39282 11831 ft 427 kts 332°
2026-05-06 01:02 33.82740 -116.40494 11936 ft 427 kts 342°
2026-05-06 01:02 33.85429 -116.42082 12031 ft 427 kts 333°
2026-05-06 01:02 33.87799 -116.44223 11929 ft 430 kts 316°
2026-05-06 01:03 33.89306 -116.47240 11968 ft 428 kts 292°
2026-05-06 01:03 33.89837 -116.50773 11970 ft 436 kts 272°
2026-05-06 01:03 33.89250 -116.54330 11976 ft 440 kts 252°
2026-05-06 01:03 33.88173 -116.57790 12037 ft 439 kts 255°
2026-05-06 01:04 33.87899 -116.61399 12022 ft 435 kts 276°
2026-05-06 01:04 33.88125 -116.65068 12034 ft 436 kts 275°
2026-05-06 01:04 33.88304 -116.68710 12049 ft 438 kts 274°
2026-05-06 01:04 33.88071 -116.72348 12052 ft 438 kts 263°
2026-05-06 01:05 33.88196 -116.75932 12047 ft 435 kts 283°
2026-05-06 01:05 33.89255 -116.79359 12041 ft 434 kts 295°
2026-05-06 01:05 33.90594 -116.82603 11991 ft 433 kts 304°
2026-05-06 01:05 33.92681 -116.85133 11995 ft 430 kts 326°
2026-05-06 01:06 33.95372 -116.86571 12017 ft 428 kts 343°
2026-05-06 01:06 33.98101 -116.87990 12041 ft 428 kts 327°
2026-05-06 01:06 34.00245 -116.90504 11981 ft 433 kts 308°
2026-05-06 01:06 34.01476 -116.93739 11944 ft 435 kts 285°
2026-05-06 01:07 34.01667 -116.97387 11951 ft 436 kts 263°
2026-05-06 01:07 34.00784 -117.00862 11921 ft 438 kts 242°
2026-05-06 01:07 33.98976 -117.03767 11996 ft 440 kts 226°
2026-05-06 01:07 33.96784 -117.06333 12028 ft 444 kts 224°
2026-05-06 01:08 33.94702 -117.09096 12016 ft 443 kts 238°
2026-05-06 01:08 33.93534 -117.12491 12020 ft 440 kts 256°
2026-05-06 01:08 33.92974 -117.16121 12024 ft 441 kts 261°
2026-05-06 01:08 33.92289 -117.19705 12019 ft 440 kts 263°
2026-05-06 01:09 33.92427 -117.23347 12026 ft 437 kts 280°
2026-05-06 01:09 33.92709 -117.26962 12029 ft 439 kts 274°
2026-05-06 01:09 33.92724 -117.30627 12025 ft 422 kts 270°
2026-05-06 01:09 33.92628 -117.33998 11545 ft 393 kts 269°
2026-05-06 01:10 33.92505 -117.37163 11048 ft 366 kts 269°
2026-05-06 01:10 33.92383 -117.40122 10552 ft 343 kts 269°
2026-05-06 01:10 33.92264 -117.42926 10050 ft 324 kts 269°
2026-05-06 01:10 33.92153 -117.45564 9555 ft 309 kts 269°
2026-05-06 01:11 33.92046 -117.48058 9069 ft 296 kts 269°
2026-05-06 01:11 33.91944 -117.50478 8577 ft 285 kts 269°
2026-05-06 01:11 33.91847 -117.52808 8085 ft 276 kts 270°
2026-05-06 01:11 33.92160 -117.55024 7588 ft 264 kts 290°
2026-05-06 01:12 33.92715 -117.57098 7095 ft 257 kts 288°
2026-05-06 01:12 33.93198 -117.59139 6833 ft 253 kts 287°
2026-05-06 01:12 33.93668 -117.61211 6760 ft 254 kts 287°
2026-05-06 01:12 33.94123 -117.63257 6686 ft 252 kts 287°
2026-05-06 01:13 33.94581 -117.65308 6614 ft 253 kts 286°
2026-05-06 01:13 33.95036 -117.67356 6538 ft 253 kts 286°
2026-05-06 01:13 33.95486 -117.69385 6465 ft 254 kts 286°
2026-05-06 01:13 33.95944 -117.71446 6391 ft 254 kts 286°
2026-05-06 01:14 33.96823 -117.75591 6239 ft 256 kts 277°
2026-05-06 01:14 33.96923 -117.77708 6169 ft 255 kts 285°
2026-05-06 01:14 33.97843 -117.79486 6103 ft 251 kts 321°
2026-05-06 01:15 33.99438 -117.80225 6038 ft 251 kts 357°
2026-05-06 01:15 34.01117 -117.79737 6013 ft 251 kts 23°
2026-05-06 01:15 34.02739 -117.78937 6017 ft 248 kts 13°
2026-05-06 01:15 34.04437 -117.78658 6021 ft 245 kts
2026-05-06 01:16 34.06147 -117.78641 6022 ft 244 kts 358°
2026-05-06 01:16 34.07824 -117.78655 6019 ft 243 kts
2026-05-06 01:16 34.09496 -117.78529 6023 ft 240 kts 349°
2026-05-06 01:16 34.10934 -117.79507 6027 ft 238 kts 311°
2026-05-06 01:17 34.11589 -117.81327 5705 ft 254 kts 277°
2026-05-06 01:17 34.11264 -117.83466 4979 ft 270 kts 247°
2026-05-06 01:17 34.10387 -117.85485 4236 ft 272 kts 241°
2026-05-06 01:17 34.09450 -117.87464 3495 ft 273 kts 240°
2026-05-06 01:18 34.08621 -117.89433 3238 ft 254 kts 250°
2026-05-06 01:18 34.08328 -117.91428 3066 ft 236 kts 262°
2026-05-06 01:18 34.08213 -117.93333 3005 ft 215 kts 276°
2026-05-06 01:18 34.08399 -117.95010 3011 ft 193 kts 274°
2026-05-06 01:19 34.08494 -117.96555 3012 ft 173 kts 272°
2026-05-06 01:19 34.08563 -117.97992 2632 ft 178 kts 272°
2026-05-06 01:19 34.08633 -117.99528 2139 ft 187 kts 272°
2026-05-06 01:19 34.08703 -118.01105 1684 ft 192 kts 272°
2026-05-06 01:20 34.08749 -118.02741 1343 ft 192 kts 268°
2026-05-06 01:20 34.09139 -118.04087 1069 ft 166 kts 323°
2026-05-06 01:20 34.10192 -118.04263 914 ft 157 kts 13°
2026-05-06 01:20 34.10810 -118.03353 926 ft 172 kts 120°
2026-05-06 01:21 34.09797 -118.02832 593 ft 156 kts 189°
2026-05-06 01:21 34.08933 -118.03298 302 ft 103 kts 207°
2026-05-06 01:21 34.08569 -118.03499 297 ft 17 kts 113°
2026-05-06 01:21 34.08556 -118.03487 297 ft 10 kts 154°
2026-05-06 01:22 34.08540 -118.03467 298 ft 0 kts 123°